When you browse on this site, cookies collect data to enhance your experience and personalize the content and advertising you see.
Visit our Privacy Policy to learn more. By continuing to use the site, you agree to this use of cookies and data.
  • en France
  • Liste des pays
  • À 7 jours
  • Température de l'eau
  • Carte météo
  • Widgets météo
  • user-avatar
    Se connecter

    Météo par heure à Andorre-la-Vieille

    Ce jour, 19 Février, Mercredi

    Heure Température Précipitation Vent Pression Humidité
    00:00 -3°C° 0 mm 2 m/s 629 mmHg 86%
    01:00 -3°C° 0 mm 2 m/s 629 mmHg 83%
    02:00 -4°C° 0 mm 2 m/s 628 mmHg 80%
    03:00 -4°C° 0 mm 2 m/s 628 mmHg 77%
    04:00 -4°C° 0 mm 2 m/s 628 mmHg 73%
    05:00 -4°C° 0 mm 2 m/s 628 mmHg 69%
    06:00 -4°C° 0 mm 2 m/s 629 mmHg 64%
    07:00 -2°C° 0 mm 2 m/s 629 mmHg 61%
    08:00 -1°C° 0 mm 2 m/s 630 mmHg 59%
    09:00 +1°C° 0 mm 2 m/s 631 mmHg 56%
    10:00 +3°C° 0 mm 2 m/s 631 mmHg 48%
    11:00 +5°C° 0 mm 2 m/s 632 mmHg 39%
    12:00 +9°C° 0 mm 1 m/s 633 mmHg 31%
    13:00 +8°C° 0 mm 1 m/s 632 mmHg 35%
    14:00 +8°C° 0 mm 1 m/s 631 mmHg 39%
    15:00 +8°C° 0 mm 1 m/s 631 mmHg 42%
    16:00 +6°C° 0 mm 1 m/s 630 mmHg 55%
    17:00 +3°C° 0 mm 1 m/s 629 mmHg 67%
    18:00 +1°C° 0 mm 1 m/s 628 mmHg 79%
    19:00 +1°C° 0 mm 1 m/s 628 mmHg 74%
    20:00 +1°C° 0 mm 1 m/s 628 mmHg 68%
    21:00 +1°C° 0 mm 1 m/s 628 mmHg 62%
    22:00 +1°C° 0 mm 1 m/s 628 mmHg 59%
    23:00 +1°C° 0 mm 1 m/s 627 mmHg 55%

    Demain, 20 Février, Jeudi

    Heure Température Précipitation Vent Pression Humidité
    00:00 +1°C° 0 mm 1 m/s 627 mmHg 51%
    01:00 +1°C° 0 mm 1 m/s 627 mmHg 47%
    02:00 +2°C° 0 mm 1 m/s 626 mmHg 44%
    03:00 +2°C° 0 mm 1 m/s 626 mmHg 41%
    04:00 +2°C° 0 mm 1 m/s 626 mmHg 38%
    05:00 +2°C° 0 mm 1 m/s 626 mmHg 35%
    06:00 +2°C° 0 mm 1 m/s 626 mmHg 33%
    07:00 +4°C° 0 mm 1 m/s 627 mmHg 31%
    08:00 +5°C° 0 mm 0 m/s 627 mmHg 30%
    09:00 +8°C° 0 mm 0 m/s 628 mmHg 29%
    10:00 +9°C° 0 mm 0 m/s 629 mmHg 28%
    11:00 +11°C° 0 mm 1 m/s 629 mmHg 27%
    12:00 +12°C° 0 mm 1 m/s 629 mmHg 27%
    13:00 +12°C° 0 mm 1 m/s 629 mmHg 30%
    14:00 +12°C° 0 mm 1 m/s 629 mmHg 33%
    15:00 +11°C° 0 mm 1 m/s 629 mmHg 36%
    16:00 +9°C° 0 mm 1 m/s 628 mmHg 46%
    17:00 +6°C° 0 mm 1 m/s 627 mmHg 56%
    18:00 +3°C° 0 mm 1 m/s 626 mmHg 67%
    19:00 +3°C° 0 mm 1 m/s 627 mmHg 65%
    20:00 +3°C° 0 mm 1 m/s 627 mmHg 64%
    21:00 +3°C° 0 mm 1 m/s 627 mmHg 62%
    22:00 +2°C° 0 mm 1 m/s 628 mmHg 65%
    23:00 +2°C° 0 mm 1 m/s 628 mmHg 69%

    Après-demain, 21 Février, Vendredi

    Heure Température Précipitation Vent Pression Humidité
    00:00 +2°C° 0 mm 1 m/s 628 mmHg 72%
    01:00 +1°C° 0 mm 1 m/s 628 mmHg 73%
    02:00 +1°C° 0 mm 1 m/s 628 mmHg 74%
    03:00 +1°C° 0 mm 1 m/s 628 mmHg 75%
    04:00 +1°C° 0 mm 1 m/s 628 mmHg 73%
    05:00 +1°C° 0 mm 1 m/s 628 mmHg 71%
    06:00 +1°C° 0 mm 1 m/s 628 mmHg 68%
    13:00 +10°C° 0 mm 1 m/s 632 mmHg 44%
    14:00 +10°C° 0 mm 1 m/s 632 mmHg 45%
    15:00 +10°C° 0 mm 1 m/s 631 mmHg 47%
    16:00 +8°C° 0 mm 1 m/s 630 mmHg 58%
    17:00 +5°C° 0 mm 1 m/s 630 mmHg 70%
    18:00 +3°C° 0 mm 1 m/s 629 mmHg 81%
    19:00 +3°C° 0 mm 1 m/s 629 mmHg 74%
    20:00 +3°C° 0 mm 1 m/s 629 mmHg 66%
    21:00 +3°C° 0 mm 1 m/s 629 mmHg 59%
    22:00 +3°C° 0 mm 1 m/s 629 mmHg 54%
    23:00 +3°C° 0 mm 1 m/s 630 mmHg 49%

    22 Février, Samedi

    Heure Température Précipitation Vent Pression Humidité
    00:00 +2°C° 0 mm 1 m/s 630 mmHg 44%
    01:00 +3°C° 0 mm 1 m/s 629 mmHg 38%
    02:00 +3°C° 0 mm 1 m/s 629 mmHg 33%
    03:00 +3°C° 0 mm 1 m/s 629 mmHg 28%
    04:00 +3°C° 0 mm 1 m/s 629 mmHg 27%
    05:00 +3°C° 0 mm 1 m/s 629 mmHg 26%
    06:00 +3°C° 0 mm 1 m/s 630 mmHg 25%
    07:00 +5°C° 0 mm 1 m/s 631 mmHg 26%
    08:00 +7°C° 0 mm 1 m/s 632 mmHg 26%
    09:00 +9°C° 0 mm 1 m/s 633 mmHg 27%
    10:00 +10°C° 0 mm 1 m/s 634 mmHg 27%
    11:00 +11°C° 0 mm 1 m/s 634 mmHg 26%
    12:00 +13°C° 0 mm 1 m/s 635 mmHg 26%
    13:00 +13°C° 0 mm 1 m/s 634 mmHg 30%
    14:00 +12°C° 0 mm 1 m/s 634 mmHg 33%
    15:00 +12°C° 0 mm 1 m/s 634 mmHg 37%
    16:00 +10°C° 0 mm 1 m/s 633 mmHg 48%
    17:00 +6°C° 0 mm 0 m/s 632 mmHg 60%
    18:00 +4°C° 0 mm 0 m/s 631 mmHg 71%
    19:00 +4°C° 0 mm 0 m/s 631 mmHg 67%
    20:00 +5°C° 0 mm 1 m/s 632 mmHg 63%
    21:00 +5°C° 0 mm 1 m/s 632 mmHg 60%
    22:00 +4°C° 0 mm 1 m/s 632 mmHg 57%
    23:00 +4°C° 0 mm 1 m/s 632 mmHg 54%

    23 Février, Dimanche

    Heure Température Précipitation Vent Pression Humidité
    00:00 +4°C° 0 mm 1 m/s 632 mmHg 52%
    01:00 +4°C° 0 mm 1 m/s 631 mmHg 51%
    02:00 +4°C° 0 mm 1 m/s 631 mmHg 51%
    03:00 +4°C° 0 mm 1 m/s 631 mmHg 50%
    04:00 +4°C° 0 mm 1 m/s 631 mmHg 49%
    05:00 +4°C° 0 mm 1 m/s 631 mmHg 49%
    06:00 +4°C° 0 mm 1 m/s 631 mmHg 48%
    07:00 +6°C° 0 mm 1 m/s 632 mmHg 46%
    08:00 +7°C° 0 mm 0 m/s 633 mmHg 44%
    09:00 +9°C° 0 mm 0 m/s 634 mmHg 41%
    10:00 +12°C° 0 mm 1 m/s 634 mmHg 39%
    11:00 +13°C° 0 mm 1 m/s 634 mmHg 37%
    12:00 +14°C° 0 mm 1 m/s 635 mmHg 35%
    13:00 +14°C° 0 mm 1 m/s 634 mmHg 37%
    14:00 +14°C° 0 mm 1 m/s 634 mmHg 40%
    15:00 +14°C° 0 mm 1 m/s 633 mmHg 43%
    16:00 +11°C° 0 mm 1 m/s 632 mmHg 53%
    17:00 +9°C° 0 mm 1 m/s 632 mmHg 64%
    18:00 +6°C° 0 mm 1 m/s 631 mmHg 75%
    19:00 +6°C° 0 mm 1 m/s 631 mmHg 71%
    20:00 +5°C° 0 mm 1 m/s 631 mmHg 68%
    21:00 +4°C° 0 mm 2 m/s 631 mmHg 64%
    22:00 +4°C° 0 mm 2 m/s 631 mmHg 58%
    23:00 +4°C° 0 mm 2 m/s 631 mmHg 53%

    24 Février, Lundi

    Heure Température Précipitation Vent Pression Humidité
    00:00 +3°C° 0 mm 2 m/s 631 mmHg 47%
    01:00 +3°C° 0 mm 2 m/s 631 mmHg 46%
    02:00 +4°C° 0 mm 1 m/s 631 mmHg 45%
    03:00 +4°C° 0 mm 1 m/s 630 mmHg 44%
    04:00 +4°C° 0 mm 1 m/s 630 mmHg 45%
    05:00 +4°C° 0 mm 1 m/s 630 mmHg 45%
    06:00 +3°C° 0 mm 2 m/s 630 mmHg 46%
    07:00 +6°C° 0 mm 1 m/s 631 mmHg 42%
    08:00 +8°C° 0 mm 1 m/s 632 mmHg 39%
    09:00 +9°C° 0 mm 0 m/s 633 mmHg 36%
    10:00 +11°C° 0 mm 1 m/s 633 mmHg 35%
    11:00 +12°C° 0 mm 1 m/s 633 mmHg 33%
    12:00 +13°C° 0 mm 1 m/s 633 mmHg 32%
    13:00 +13°C° 0 mm 1 m/s 633 mmHg 33%
    14:00 +13°C° 0 mm 1 m/s 632 mmHg 35%
    15:00 +13°C° 0 mm 1 m/s 631 mmHg 36%
    16:00 +11°C° 0 mm 1 m/s 630 mmHg 45%
    17:00 +9°C° 0 mm 1 m/s 629 mmHg 54%
    18:00 +5°C° 0 mm 0 m/s 628 mmHg 63%
    19:00 +5°C° 0 mm 0 m/s 628 mmHg 62%
    20:00 +6°C° 0 mm 1 m/s 628 mmHg 61%
    21:00 +5°C° 0 mm 1 m/s 628 mmHg 60%
    22:00 +5°C° 0 mm 1 m/s 628 mmHg 59%
    23:00 +5°C° 0 mm 1 m/s 627 mmHg 58%
    Voir plus